User: anonymous   Login
Location: Cabeza de los Veneras
(40.2000°N, 5.2000°W)
Time: 23:08:15
(UTC+00:00)
Language:

CZ-4 R/B - Orbit

View from above orbital plane
View from above orbital plane
View from above satellite
View from above satellite

Ground track
Ground track

The orbit data is extracted from the following two-line orbital elements,

1 29507U 06046C   24168.88946416  .00004340  00000-0  28403-3 0  9997
2 29507  97.6432 204.9439 0038392 278.2712  81.4163 15.07691853964671
Epoch (UTC): 16 June 2024 21:20:49
Eccentricity: 0.0038392
inclination: 97.6432°
perigee height: 516 km
apogee height: 570 km
right ascension of ascending node: 204.9439°
argument of perigee: 278.2712°
revolutions per day: 15.07691853
mean anomaly at epoch: 81.4163°
orbit number at epoch: 96467

The dashed part of the orbit path shows where the satellite is in the earth's shadow,  

DLR